• In Russia
  • List of Countries
  • For 7 days
  • Water Temperature
  • Satellite Maps
  • Weather Map
  • Weather Widgets
  • user-avatar
    Login

    Hourly Weather Nuwejba

    Today, 19 January, Saturday

    Time Temperature Precipitation Wind Pressure Humidity
    00:00 +7°C° 0 mm 2 mps 694 mmHg 76%
    01:00 +7°C° 0 mm 2 mps 694 mmHg 78%
    02:00 +6°C° 0 mm 2 mps 693 mmHg 80%
    03:00 +6°C° 0 mm 2 mps 693 mmHg 80%
    04:00 +6°C° 0 mm 2 mps 693 mmHg 80%
    05:00 +6°C° 0 mm 2 mps 693 mmHg 80%
    06:00 +6°C° 0 mm 2 mps 693 mmHg 75%
    07:00 +7°C° 0 mm 2 mps 693 mmHg 69%
    08:00 +9°C° 0 mm 2 mps 694 mmHg 59%
    09:00 +10°C° 0 mm 2 mps 694 mmHg 51%
    10:00 +13°C° 0 mm 2 mps 694 mmHg 43%
    11:00 +14°C° 0 mm 2 mps 694 mmHg 35%
    12:00 +15°C° 0 mm 2 mps 694 mmHg 31%
    13:00 +16°C° 0 mm 2 mps 694 mmHg 27%
    14:00 +17°C° 0 mm 2 mps 693 mmHg 24%
    15:00 +16°C° 0 mm 2 mps 693 mmHg 25%
    16:00 +16°C° 0 mm 2 mps 693 mmHg 26%
    17:00 +15°C° 0 mm 2 mps 693 mmHg 27%
    18:00 +14°C° 0 mm 1 mps 693 mmHg 29%
    19:00 +13°C° 0 mm 1 mps 693 mmHg 31%
    20:00 +12°C° 0 mm 1 mps 693 mmHg 33%
    21:00 +11°C° 0 mm 1 mps 693 mmHg 34%
    22:00 +11°C° 0 mm 1 mps 693 mmHg 35%
    23:00 +10°C° 0 mm 1 mps 693 mmHg 36%

    Tomorrow, 20 January, Sunday

    Time Temperature Precipitation Wind Pressure Humidity
    00:00 +10°C° 0 mm 1 mps 693 mmHg 37%
    01:00 +9°C° 0 mm 1 mps 693 mmHg 38%
    02:00 +9°C° 0 mm 1 mps 693 mmHg 39%
    03:00 +9°C° 0 mm 1 mps 692 mmHg 40%
    04:00 +8°C° 0 mm 1 mps 692 mmHg 41%
    05:00 +8°C° 0 mm 1 mps 692 mmHg 41%
    06:00 +9°C° 0 mm 1 mps 692 mmHg 38%
    07:00 +10°C° 0 mm 1 mps 693 mmHg 34%
    08:00 +11°C° 0 mm 1 mps 693 mmHg 31%
    09:00 +13°C° 0 mm 1 mps 694 mmHg 27%
    10:00 +15°C° 0 mm 1 mps 694 mmHg 24%
    11:00 +18°C° 0 mm 1 mps 694 mmHg 20%
    12:00 +19°C° 0 mm 1 mps 694 mmHg 18%
    13:00 +20°C° 0 mm 1 mps 693 mmHg 15%
    14:00 +21°C° 0 mm 1 mps 693 mmHg 13%
    15:00 +20°C° 0 mm 1 mps 693 mmHg 14%
    16:00 +19°C° 0 mm 1 mps 693 mmHg 16%
    17:00 +18°C° 0 mm 1 mps 692 mmHg 17%
    18:00 +16°C° 0 mm 1 mps 693 mmHg 18%
    19:00 +15°C° 0 mm 1 mps 693 mmHg 20%
    20:00 +14°C° 0 mm 1 mps 693 mmHg 22%
    21:00 +13°C° 0 mm 0 mps 693 mmHg 22%
    22:00 +13°C° 0 mm 0 mps 693 mmHg 21%
    23:00 +13°C° 0 mm 0 mps 693 mmHg 21%

    Day after tomorrow, 21 January, Monday

    Time Temperature Precipitation Wind Pressure Humidity
    00:00 +13°C° 0 mm 0 mps 693 mmHg 21%
    01:00 +13°C° 0 mm 0 mps 693 mmHg 21%
    02:00 +13°C° 0 mm 1 mps 692 mmHg 20%
    03:00 +13°C° 0 mm 1 mps 692 mmHg 20%
    04:00 +13°C° 0 mm 1 mps 692 mmHg 21%
    05:00 +13°C° 0 mm 1 mps 692 mmHg 21%
    06:00 +14°C° 0 mm 1 mps 692 mmHg 19%
    07:00 +14°C° 0 mm 1 mps 693 mmHg 17%
    08:00 +15°C° 0 mm 1 mps 693 mmHg 15%
    09:00 +16°C° 0 mm 1 mps 694 mmHg 14%
    10:00 +19°C° 0 mm 1 mps 694 mmHg 13%
    11:00 +20°C° 0 mm 1 mps 694 mmHg 12%
    12:00 +21°C° 0 mm 1 mps 694 mmHg 12%
    13:00 +21°C° 0 mm 1 mps 693 mmHg 13%
    14:00 +22°C° 0 mm 1 mps 693 mmHg 13%
    15:00 +21°C° 0 mm 1 mps 693 mmHg 15%
    16:00 +20°C° 0 mm 1 mps 693 mmHg 16%
    17:00 +18°C° 0 mm 2 mps 693 mmHg 17%
    18:00 +18°C° 0 mm 1 mps 693 mmHg 20%
    19:00 +16°C° 0 mm 1 mps 693 mmHg 22%
    20:00 +14°C° 0 mm 1 mps 693 mmHg 24%
    21:00 +14°C° 0 mm 1 mps 693 mmHg 26%
    22:00 +13°C° 0 mm 1 mps 693 mmHg 27%
    23:00 +13°C° 0 mm 1 mps 693 mmHg 29%

    22 January, Tuesday

    Time Temperature Precipitation Wind Pressure Humidity
    00:00 +12°C° 0 mm 1 mps 692 mmHg 30%
    01:00 +12°C° 0 mm 1 mps 692 mmHg 30%
    02:00 +11°C° 0 mm 1 mps 692 mmHg 31%
    03:00 +11°C° 0 mm 1 mps 691 mmHg 32%
    04:00 +11°C° 0 mm 1 mps 691 mmHg 32%
    05:00 +10°C° 0 mm 1 mps 691 mmHg 33%
    06:00 +11°C° 0 mm 1 mps 691 mmHg 31%
    07:00 +12°C° 0 mm 1 mps 692 mmHg 30%
    08:00 +13°C° 0 mm 1 mps 692 mmHg 28%
    09:00 +15°C° 0 mm 1 mps 692 mmHg 25%
    10:00 +18°C° 0 mm 1 mps 693 mmHg 21%
    11:00 +20°C° 0 mm 1 mps 693 mmHg 18%
    12:00 +21°C° 0 mm 1 mps 693 mmHg 16%
    13:00 +21°C° 0 mm 1 mps 692 mmHg 14%
    14:00 +22°C° 0 mm 1 mps 692 mmHg 13%
    15:00 +21°C° 0 mm 1 mps 691 mmHg 14%
    16:00 +20°C° 0 mm 1 mps 691 mmHg 15%
    17:00 +19°C° 0 mm 1 mps 691 mmHg 17%
    18:00 +18°C° 0 mm 1 mps 691 mmHg 20%
    19:00 +15°C° 0 mm 1 mps 691 mmHg 23%
    20:00 +14°C° 0 mm 1 mps 691 mmHg 25%
    21:00 +13°C° 0 mm 1 mps 691 mmHg 27%
    22:00 +12°C° 0 mm 0 mps 691 mmHg 28%
    23:00 +11°C° 0 mm 0 mps 691 mmHg 29%

    23 January, Wednesday

    Time Temperature Precipitation Wind Pressure Humidity
    00:00 +11°C° 0 mm 0 mps 690 mmHg 29%
    01:00 +11°C° 0 mm 0 mps 690 mmHg 29%
    02:00 +10°C° 0 mm 0 mps 690 mmHg 28%
    03:00 +10°C° 0 mm 0 mps 690 mmHg 28%
    04:00 +10°C° 0 mm 0 mps 689 mmHg 28%
    05:00 +10°C° 0 mm 0 mps 689 mmHg 28%
    06:00 +11°C° 0 mm 0 mps 690 mmHg 27%
    07:00 +12°C° 0 mm 0 mps 690 mmHg 25%
    08:00 +13°C° 0 mm 0 mps 691 mmHg 24%
    09:00 +16°C° 0 mm 1 mps 691 mmHg 21%
    10:00 +19°C° 0 mm 1 mps 691 mmHg 18%
    11:00 +20°C° 0 mm 2 mps 691 mmHg 14%
    12:00 +20°C° 0 mm 2 mps 691 mmHg 13%
    13:00 +21°C° 0 mm 3 mps 690 mmHg 12%
    14:00 +22°C° 0 mm 3 mps 690 mmHg 11%
    15:00 +21°C° 0 mm 3 mps 690 mmHg 13%
    16:00 +20°C° 0 mm 3 mps 689 mmHg 15%
    17:00 +19°C° 0 mm 2 mps 689 mmHg 17%
    18:00 +18°C° 0 mm 2 mps 689 mmHg 21%
    19:00 +17°C° 0 mm 2 mps 689 mmHg 24%
    20:00 +16°C° 0 mm 2 mps 690 mmHg 28%
    21:00 +16°C° 0 mm 2 mps 690 mmHg 29%
    22:00 +15°C° 0 mm 2 mps 689 mmHg 31%
    23:00 +15°C° 0 mm 2 mps 689 mmHg 32%

    24 January, Thursday

    Time Temperature Precipitation Wind Pressure Humidity
    00:00 +15°C° 0 mm 2 mps 689 mmHg 32%
    01:00 +14°C° 0 mm 2 mps 689 mmHg 33%
    02:00 +14°C° 0 mm 2 mps 689 mmHg 33%
    03:00 +14°C° 0 mm 2 mps 689 mmHg 34%
    04:00 +13°C° 0 mm 2 mps 689 mmHg 35%
    05:00 +13°C° 0 mm 2 mps 689 mmHg 37%
    06:00 +14°C° 0 mm 2 mps 689 mmHg 36%
    07:00 +14°C° 0 mm 2 mps 690 mmHg 35%
    08:00 +15°C° 0 mm 2 mps 691 mmHg 35%
    09:00 +17°C° 0 mm 3 mps 691 mmHg 32%
    10:00 +19°C° 0 mm 3 mps 691 mmHg 29%
    11:00 +21°C° 0 mm 4 mps 691 mmHg 27%
    12:00 +22°C° 0 mm 4 mps 691 mmHg 24%
    13:00 +23°C° 0 mm 4 mps 691 mmHg 22%
    14:00 +25°C° 0 mm 5 mps 691 mmHg 20%
    15:00 +23°C° 0 mm 4 mps 691 mmHg 27%
    16:00 +21°C° 0 mm 4 mps 691 mmHg 34%
    17:00 +20°C° 0 mm 3 mps 691 mmHg 41%
    18:00 +19°C° 0 mm 2 mps 691 mmHg 52%
    19:00 +18°C° 0 mm 2 mps 691 mmHg 63%
    20:00 +16°C° 0 mm 2 mps 691 mmHg 74%
    21:00 +16°C° 0 mm 1 mps 691 mmHg 77%
    22:00 +16°C° 0 mm 1 mps 692 mmHg 81%
    23:00 +15°C° 0 mm 1 mps 692 mmHg 84%
    Show more